User: anonymous   Login
Location: Unspecified
(0.0000°N, 0.0000°E)
Time: 00:10:36
(UTC+00:00)
Language:

STARLINK-36130 - Orbit

View from above orbital plane
View from above orbital plane
View from above satellite
View from above satellite

Ground track
Ground track

The orbit is defined by the following mean orbital elements,

1 66931U          26145.31016972 +.00000000 +00000-0 +76163-3 0 00001
2 66931  53.1600   2.1380 0001205  93.5510 266.5630 15.34410855    01
Epoch (UTC): 25 May 2026 07:26:38
Eccentricity: 0.0001205
inclination: 53.1600°
perigee height: 462 km
apogee height: 463 km
right ascension of ascending node: 2.1380°
argument of perigee: 93.5510°
revolutions per day: 15.34410855
mean anomaly at epoch: 266.5630°

The dashed part of the orbit path shows where the satellite is in the earth's shadow,  

DLR